This is the latest recevied weather packets stored in our database for station/object EA3IK-1. If no packets are shown the sender has not sent any weather packets the latest 10 day(s).
| Time | Temp. | Humidity | Pressure | Rain* | Wind** | Luminosity | Snow |
|---|---|---|---|---|---|---|---|
| 1777109556 | 20.56° C | 59% | 1018.3 hPa | 0 mm | - | - | - |
| 1777108655 | 20.56° C | 61% | 1018.3 hPa | 0 mm | - | - | - |
| 1777107755 | 20° C | 64% | 1018.4 hPa | 0 mm | - | - | - |
| 1777106854 | 18.33° C | 67% | 1018.4 hPa | 0 mm | - | - | - |
| 1777105953 | 17.78° C | 68% | 1018.4 hPa | 0 mm | - | - | - |
| 1777105052 | 17.78° C | 68% | 1018.4 hPa | 0 mm | - | - | - |
| 1777104151 | 18.33° C | 67% | 1018.5 hPa | 0 mm | - | - | - |
| 1777103250 | 17.78° C | 67% | 1018.6 hPa | 0 mm | - | - | - |
| 1777102350 | 17.78° C | 67% | 1018.5 hPa | 0 mm | - | - | - |
| 1777101449 | 16.67° C | 68% | 1018.4 hPa | 0 mm | - | - | - |
| 1777100548 | 15° C | 68% | 1018.4 hPa | 0 mm | - | - | - |
| 1777099647 | 14.44° C | 65% | 1018.3 hPa | 0 mm | - | - | - |
| 1777098746 | 13.89° C | 63% | 1018.2 hPa | 0 mm | - | - | - |
| 1777097845 | 12.78° C | 61% | 1018.1 hPa | 0 mm | - | - | - |
| 1777096944 | 12.78° C | 60% | 1018.1 hPa | 0 mm | - | - | - |
| 1777096043 | 11.67° C | 60% | 1018 hPa | 0 mm | - | - | - |
| 1777095143 | 10.56° C | 62% | 1017.9 hPa | 0 mm | - | - | - |
| 1777094242 | 10.56° C | 65% | 1017.7 hPa | 0 mm | - | - | - |
| 1777093341 | 11.11° C | 64% | 1017.6 hPa | 0 mm | - | - | - |
| 1777092440 | 11.11° C | 65% | 1017.6 hPa | 0 mm | - | - | - |
| 1777091539 | 11.11° C | 65% | 1017.7 hPa | 0 mm | - | - | - |
| 1777090638 | 11.11° C | 65% | 1017.6 hPa | 0 mm | - | - | - |
| 1777089738 | 11.67° C | 65% | 1017.6 hPa | 0 mm | - | - | - |
| 1777088837 | 11.67° C | 67% | 1017.6 hPa | 0 mm | - | - | - |
| 1777087936 | 11.67° C | 66% | 1017.5 hPa | 0 mm | - | - | - |
* Rain latest hour (hover to see other rain measurements)
** Current wind speed in m/s (hover to see current wind gust speed)